FW4141 Weather Reports


time (UTC)temp
C
wind
direction
speed
KPH
gust
KPH
rain 1hr
cm
rain 24hr
cm
rain mn
cm
humidity
%
barometer
mb
20260508152044 13 0.0 0.0 0.00 0.00 0.00 61 1012.1
20260508151042 13 0.0 0.0 0.00 0.00 0.00 60 1012.1
20260508150041 14 0.0 0.0 0.00 0.00 0.00 60 1012.1
20260508143030 14 0.0 0.0 0.00 0.00 0.00 56 1012.1
20260508142033 14 0.0 0.0 0.00 0.00 0.00 56 1012.1
20260508141037 14 0.0 0.0 0.00 0.00 0.00 59 1012.1
20260508140200 14 0.0 0.0 0.00 0.00 0.00 60 1012.1
20260508135143 13 0.0 0.0 0.00 0.00 0.00 60 1012.1
20260508134134 13 0.0 0.0 0.00 0.00 0.00 60 1012.1
20260508133125 13 0.0 0.0 0.00 0.00 0.00 59 1012.2
20260508132123 13 0.0 0.0 0.00 0.00 0.00 58 1012.3
20260508131117 14 0.0 0.0 0.00 0.00 0.00 58 1012.2
20260508130122 13 0.0 0.0 0.00 0.03 0.00 59 1012.4
20260508125050 13 0.0 0.0 0.00 0.03 0.00 62 1012.4
20260508124051 13 0.0 0.0 0.00 0.03 0.00 61 1012.3
20260508123048 13 0.0 0.0 0.00 0.03 0.00 60 1012.3
20260508122051 13 0.0 0.0 0.00 0.03 0.00 61 1012.2
20260508121041 13 0.0 0.0 0.00 0.03 0.00 61 1012.3
20260508120047 13 0.0 0.0 0.00 0.03 0.00 61 1012.2
20260508115033 13 0.0 0.0 0.00 0.03 0.00 61 1012.3
20260508114026 13 0.0 0.0 0.00 0.03 0.00 61 1012.3
20260508112110 13 0.0 0.0 0.00 0.03 0.00 61 1012.4
20260508111126 12 0.0 0.0 0.00 0.03 0.00 61 1012.2
20260508105106 12 0.0 0.0 0.00 0.03 0.00 60 1012.1
20260508104151 13 0.0 0.0 0.00 0.03 0.00 61 1012.1
20260508103101 13 0.0 0.0 0.00 0.03 0.00 62 1012.1
20260508102103 12 0.0 0.0 0.00 0.03 0.00 62 1012.0
20260508101109 13 0.0 0.0 0.00 0.03 0.00 61 1012.0
20260508100114 13 0.0 0.0 0.00 0.03 0.00 61 1012.1
20260508095045 13 0.0 0.0 0.00 0.03 0.00 61 1012.0
20260508093038 13 0.0 0.0 0.00 0.03 0.00 59 1012.1
20260508092036 14 0.0 0.0 0.00 0.03 0.00 58 1012.0
20260508091108 14 0.0 0.0 0.00 0.05 0.00 58 1011.9
20260508090033 14 0.0 0.0 0.00 0.05 0.00 60 1011.9
20260508085026 13 0.0 0.0 0.00 0.05 0.00 60 1011.7
20260508084020 13 0.0 0.0 0.00 0.05 0.00 62 1011.8
20260508083017 12 0.0 0.0 0.00 0.05 0.00 61 1011.7
20260508082113 12 0.0 0.0 0.00 0.05 0.00 61 1011.6
20260508081112 12 0.0 0.0 0.00 0.05 0.00 67 1011.6
20260508080109 11 0.0 0.0 0.00 0.10 0.00 70 1011.6
20260508075106 11 0.0 0.0 0.00 0.10 0.00 70 1011.6
20260508074101 11 0.0 0.0 0.00 0.13 0.00 71 1011.5
20260508073103 11 0.0 0.0 0.00 0.15 0.00 71 1011.7
20260508072105 11 0.0 0.0 0.00 0.15 0.00 72 1011.5
20260508071050 11 0.0 0.0 0.00 0.15 0.00 73 1011.5
20260508065043 10 0.0 0.0 0.00 0.15 0.00 74 1011.4
20260508064041 10 0.0 0.0 0.00 0.15 0.00 74 1011.3
20260508063035 10 0.0 0.0 0.00 0.15 0.00 75 1011.2
20260508062032 10 0.0 0.0 0.00 0.15 0.00 76 1011.2
20260508061028 9 0.0 0.0 0.00 0.15 0.00 77 1011.1
20260508060025 9 0.0 0.0 0.00 0.15 0.00 78 1011.1
20260508055023 9 0.0 0.0 0.00 0.15 0.00 80 1011.1
20260508054039 9 0.0 0.0 0.00 0.15 0.00 80 1011.1
20260508053135 8 0.0 0.0 0.00 0.15 0.00 81 1011.0
20260508052131 8 0.0 0.0 0.00 0.15 0.00 84 1011.0
20260508051108 8 0.0 0.0 0.00 0.18 0.00 86 1011.0
20260508050103 8 0.0 0.0 0.00 0.20 0.00 87 1010.9
20260508045100 8 0.0 0.0 0.00 0.20 0.00 87 1010.8
20260508044136 8 0.0 0.0 0.00 0.20 0.00 87 1010.7
20260508043054 8 0.0 0.0 0.00 0.20 0.00 87 1010.7
20260508042050 8 0.0 0.0 0.00 0.20 0.00 87 1010.5
20260508041051 8 0.0 0.0 0.00 0.20 0.00 86 1010.6
20260508040039 8 0.0 0.0 0.00 0.20 0.00 86 1010.6
20260508035036 8 0.0 0.0 0.00 0.20 0.00 86 1010.4
20260508034032 8 0.0 0.0 0.00 0.20 0.00 86 1010.2
20260508033029 8 0.0 0.0 0.00 0.20 0.00 86 1010.2
20260508032025 8 0.0 0.0 0.00 0.20 0.00 87 1010.2
20260508031021 8 0.0 0.0 0.00 0.20 0.00 87 1010.2
20260508030019 8 0.0 0.0 0.00 0.20 0.00 88 1010.1
20260508025114 8 0.0 0.0 0.00 0.20 0.00 88 1010.1
20260508024133 8 0.0 0.0 0.00 0.20 0.00 88 1010.1
20260508023107 8 0.0 0.0 0.00 0.20 0.00 89 1010.1
20260508022103 8 0.0 0.0 0.00 0.20 0.00 89 1010.2
20260508021100 8 0.0 0.0 0.00 0.20 0.00 89 1010.1
20260508020058 8 0.0 0.0 0.00 0.20 0.00 89 1010.1
20260508015054 8 0.0 0.0 0.00 0.20 0.00 89 1010.0
20260508014051 8 0.0 0.0 0.00 0.20 0.00 89 1010.0
20260508013111 8 0.0 0.0 0.00 0.20 0.00 89 1010.0
20260508012042 8 0.0 0.0 0.00 0.20 0.00 88 1010.0
20260508011039 8 0.0 0.0 0.00 0.20 0.00 88 1010.0
20260508010035 8 0.0 0.0 0.00 0.20 0.00 88 1010.0
20260508005053 8 0.0 0.0 0.00 0.20 0.00 88 1010.0
20260508004031 8 0.0 0.0 0.00 0.20 0.00 88 1009.9
20260508001020 8 0.0 0.0 0.00 0.20 0.00 88 1010.1
20260508000152 8 0.0 0.0 0.00 0.20 0.00 88 1010.2
20260507235113 8 0.0 0.0 0.00 0.20 0.00 88 1010.1
20260507234108 8 0.0 0.0 0.00 0.20 0.00 88 1010.1
20260507233103 8 0.0 0.0 0.00 0.20 0.00 88 1010.2
20260507231058 8 0.0 0.0 0.00 0.20 0.00 87 1010.2
20260507225116 8 0.0 0.0 0.00 0.20 0.00 87 1010.2
20260507194057 8 0.0 0.0 0.00 0.20 0.20 83 1009.1
20260507193135 8 0.0 0.0 0.00 0.20 0.20 83 1009.2
20260507192120 8 0.0 0.0 0.00 0.20 0.20 83 1009.2
20260507191030 8 0.0 0.0 0.00 0.20 0.20 82 1008.9
20260507190046 9 0.0 0.0 0.00 0.20 0.20 82 1008.9
20260507185025 9 0.0 0.0 0.00 0.20 0.20 82 1008.7
20260507184017 9 0.0 0.0 0.00 0.20 0.20 82 1008.7
20260507183115 9 0.0 0.0 0.00 0.20 0.20 82 1008.8
20260507182121 9 0.0 0.0 0.00 0.20 0.20 81 1008.5
20260507181108 9 0.0 0.0 0.00 0.20 0.20 81 1008.3
20260507180117 9 0.0 0.0 0.00 0.20 0.20 81 1008.3
20260507175101 9 0.0 0.0 0.00 0.20 0.20 81 1008.1
20260507174056 9 0.0 0.0 0.00 0.20 0.20 81 1008.0
20260507173110 10 0.0 0.0 0.00 0.20 0.20 81 1007.9
20260507172108 10 0.0 0.0 0.00 0.20 0.20 81 1007.7
20260507171205 10 0.0 0.0 0.00 0.20 0.20 81 1007.5
20260507170041 10 0.0 0.0 0.00 0.20 0.20 80 1007.5
20260507165039 10 0.0 0.0 0.00 0.20 0.20 80 1007.4
20260507164036 10 0.0 0.0 0.00 0.20 0.20 80 1007.3
20260507163030 10 0.0 0.0 0.00 0.20 0.20 80 1007.4
20260507162028 10 0.0 0.0 0.00 0.20 0.20 81 1007.2
20260507161024 10 0.0 0.0 0.00 0.20 0.20 81 1007.3
20260507160021 10 0.0 0.0 0.00 0.20 0.20 81 1007.3
20260507155036 10 0.0 0.0 0.00 0.20 0.20 82 1007.5
20260507154114 10 0.0 0.0 0.00 0.20 0.20 82 1007.5
20260507153109 10 0.0 0.0 0.00 0.20 0.20 82 1007.4